Weather History for Gwinner, ND

Change the Weather History Date:

Tuesday, April 30, 2013

  Actual Average (KP67) Record (KP67)
Temperature  
Mean Temperature 47 °F -  
Max Temperature 57 °F 61 °F 75 °F (1998)
Min Temperature 37 °F 38 °F 30 °F (1997)
Degree Days  
Heating Degree Days 18    
Moisture  
Dew Point 38 °F    
Average Humidity 65    
Maximum Humidity 100    
Minimum Humidity 44    
Precipitation  
Precipitation 0.00 in - - ()
Sea Level Pressure  
Sea Level Pressure 29.67 in    
Wind  
Wind Speed 18 mph (WNW)    
Max Wind Speed 31 mph    
Max Gust Speed 43 mph    
Visibility 10 miles    
Events      
Averages and records for this station are not official NWS values.
T = Trace of Precipitation, MM = Missing Value Source: NWS Daily Summary

Daily Weather History Graph

Daily Weather History Graph

Search for Another Location

Airport:

Trip Planner

Search our weather history database for the weather conditions in past years. The results will help you decide how hot, cold, wet, or windy it might be!

Date:

Astronomy

Apr. 30, 2013 Rise Set
Actual Time 6:18 AM CDT 8:38 PM CDT
Civil Twilight 5:44 AM CDT 9:11 PM CDT
Nautical Twilight 5:03 AM CDT 9:53 PM CDT
Astronomical Twilight 4:17 AM CDT 10:40 PM CDT
Moon 1:06 AM CDT (4/30) 10:45 AM CDT (4/30)
Length of Visible Light 15h 26m
Length of Day
14h 20m
Waning Gibbous, 70% of the Moon is Illuminated
Apr 30
Waning Gibbous
May 2
Last Quarter
May 9
New
May 17
First Quarter
May 24
Full

Hourly Weather History & Observations

Time (CDT) Temp. Windchill Dew Point Humidity Pressure Visibility Wind Dir Wind Speed Gust Speed Precip Events Conditions
12:15 AM 55.4 °F - 46.4 °F 72% 29.35 in 10.0 mi ESE 6.9 mph - 0.00 in   Clear
12:35 AM 55.4 °F - 46.4 °F 72% 29.34 in 10.0 mi ESE 8.1 mph - 0.00 in   Partly Cloudy
12:55 AM 55.4 °F - 46.4 °F 72% 29.33 in 10.0 mi East 8.1 mph - 0.00 in   Partly Cloudy
1:15 AM 55.4 °F - 46.4 °F 72% 29.31 in 10.0 mi ENE 8.1 mph - 0.00 in   Clear
1:35 AM 53.6 °F - 46.4 °F 77% 29.35 in 10.0 mi NW 17.3 mph 25.3 mph 0.00 in   Partly Cloudy
1:55 AM 57.2 °F - 44.6 °F 63% 29.35 in 10.0 mi NNW 17.3 mph 21.9 mph 0.00 in   Clear
2:15 AM 51.8 °F - 46.4 °F 82% 29.35 in 10.0 mi North 23.0 mph 27.6 mph 0.00 in   Clear
2:35 AM 50.0 °F - 46.4 °F 87% 29.33 in 10.0 mi North 20.7 mph 27.6 mph 0.00 in   Clear
2:55 AM 50.0 °F - 46.4 °F 87% 29.33 in 10.0 mi North 19.6 mph - 0.00 in   Clear
3:15 AM 50.0 °F - 48.2 °F 94% 29.34 in 10.0 mi North 23.0 mph - 0.00 in   Clear
3:35 AM 50.0 °F - 50.0 °F 100% 29.35 in 10.0 mi NNW 28.8 mph 34.5 mph 0.00 in   Scattered Clouds
3:55 AM 50.0 °F - 48.2 °F 94% 29.38 in 10.0 mi NNW 20.7 mph 32.2 mph 0.00 in   Scattered Clouds
4:15 AM 50.0 °F - 48.2 °F 94% 29.39 in 10.0 mi NNW 19.6 mph 25.3 mph 0.00 in   Clear
4:55 AM 50.0 °F - 48.2 °F 94% 29.43 in 10.0 mi WNW 17.3 mph - 0.00 in   Mostly Cloudy
5:15 AM 50.0 °F - 48.2 °F 94% 29.44 in 10.0 mi WNW 20.7 mph 24.2 mph 0.00 in   Overcast
5:35 AM 48.2 °F - 48.2 °F 100% 29.44 in 10.0 mi WNW 17.3 mph - 0.00 in   Scattered Clouds
5:55 AM 48.2 °F - 48.2 °F 100% 29.44 in 10.0 mi WNW 16.1 mph 21.9 mph 0.00 in   Scattered Clouds
6:15 AM 48.2 °F - 48.2 °F 100% 29.45 in 10.0 mi West 15.0 mph - 0.00 in   Partly Cloudy
6:35 AM 48.2 °F - 48.2 °F 100% 29.47 in 10.0 mi West 12.7 mph - 0.00 in   Clear
6:55 AM 48.2 °F - 48.2 °F 100% 29.49 in 10.0 mi West 13.8 mph - 0.00 in   Scattered Clouds
7:15 AM 48.2 °F - 46.4 °F 93% 29.50 in 10.0 mi West 12.7 mph - 0.00 in   Overcast
7:35 AM 48.2 °F - 46.4 °F 93% 29.51 in 10.0 mi West 19.6 mph - 0.00 in   Mostly Cloudy
7:55 AM 48.2 °F - 44.6 °F 87% 29.53 in 10.0 mi West 19.6 mph - 0.00 in   Partly Cloudy
8:15 AM 51.8 °F - 42.8 °F 71% 29.53 in 10.0 mi West 17.3 mph 24.2 mph 0.00 in   Clear
8:35 AM 51.8 °F - 39.2 °F 62% 29.54 in 10.0 mi West 20.7 mph 29.9 mph 0.00 in   Clear
8:55 AM 51.8 °F - 39.2 °F 62% 29.55 in 10.0 mi West 25.3 mph 35.7 mph 0.00 in   Clear
9:15 AM 53.6 °F - 35.6 °F 51% 29.56 in 10.0 mi WNW 23.0 mph 33.4 mph 0.00 in   Clear
9:35 AM 53.6 °F - 35.6 °F 51% 29.57 in 10.0 mi West 20.7 mph 33.4 mph 0.00 in   Clear
9:55 AM 53.6 °F - 35.6 °F 51% 29.57 in 10.0 mi West 27.6 mph 38.0 mph 0.00 in   Clear
10:15 AM 53.6 °F - 35.6 °F 51% 29.58 in 10.0 mi West 26.5 mph 32.2 mph 0.00 in   Clear
10:35 AM 53.6 °F - 37.4 °F 54% 29.60 in 10.0 mi West 26.5 mph 33.4 mph 0.00 in   Clear
10:55 AM 53.6 °F - 35.6 °F 51% 29.62 in 10.0 mi West 21.9 mph 34.5 mph 0.00 in   Clear
11:15 AM 53.6 °F - 35.6 °F 51% 29.62 in 10.0 mi West 28.8 mph 34.5 mph 0.00 in   Clear
11:35 AM 53.6 °F - 37.4 °F 54% 29.64 in 10.0 mi West 26.5 mph 40.3 mph 0.00 in   Clear
11:55 AM 53.6 °F - 37.4 °F 54% 29.65 in 10.0 mi West 26.5 mph 40.3 mph 0.00 in   Clear
12:15 PM 53.6 °F - 37.4 °F 54% 29.66 in 10.0 mi West 31.1 mph 40.3 mph 0.00 in   Clear
12:35 PM 55.4 °F - 37.4 °F 51% 29.67 in 10.0 mi West 25.3 mph 39.1 mph 0.00 in   Clear
12:55 PM 55.4 °F - 37.4 °F 51% 29.67 in 10.0 mi West 31.1 mph 36.8 mph 0.00 in   Partly Cloudy
1:15 PM 55.4 °F - 37.4 °F 51% 29.68 in 10.0 mi West 27.6 mph 38.0 mph 0.00 in   Partly Cloudy
1:35 PM 55.4 °F - 37.4 °F 51% 29.68 in 10.0 mi West 29.9 mph 38.0 mph 0.00 in   Clear
2:15 PM 57.2 °F - 37.4 °F 48% 29.69 in 10.0 mi West 28.8 mph 35.7 mph 0.00 in   Clear
2:35 PM 55.4 °F - 37.4 °F 51% 29.70 in 10.0 mi West 29.9 mph 38.0 mph 0.00 in   Clear
2:55 PM 55.4 °F - 35.6 °F 47% 29.71 in 10.0 mi West 25.3 mph 39.1 mph 0.00 in   Clear
3:15 PM 55.4 °F - 35.6 °F 47% 29.71 in 10.0 mi West 23.0 mph 42.6 mph 0.00 in   Clear
3:35 PM 55.4 °F - 35.6 °F 47% 29.72 in 10.0 mi West 28.8 mph 40.3 mph 0.00 in   Clear
3:55 PM 55.4 °F - 35.6 °F 47% 29.74 in 10.0 mi West 28.8 mph 34.5 mph 0.00 in   Clear
4:15 PM 55.4 °F - 33.8 °F 44% 29.76 in 10.0 mi West 26.5 mph 32.2 mph 0.00 in   Clear
4:35 PM 55.4 °F - 33.8 °F 44% 29.77 in 10.0 mi WNW 23.0 mph 33.4 mph 0.00 in   Clear
4:55 PM 55.4 °F - 33.8 °F 44% 29.78 in 10.0 mi WNW 24.2 mph 34.5 mph 0.00 in   Clear
5:15 PM 53.6 °F - 33.8 °F 47% 29.80 in 10.0 mi West 24.2 mph 28.8 mph 0.00 in   Clear
5:35 PM 53.6 °F - 33.8 °F 47% 29.82 in 10.0 mi West 23.0 mph 31.1 mph 0.00 in   Clear
5:55 PM 53.6 °F - 33.8 °F 47% 29.84 in 10.0 mi West 20.7 mph 26.5 mph 0.00 in   Clear
6:15 PM 51.8 °F - 32.0 °F 47% 29.87 in 10.0 mi WNW 23.0 mph 27.6 mph 0.00 in   Clear
6:35 PM 51.8 °F - 32.0 °F 47% 29.89 in 10.0 mi WNW 16.1 mph - 0.00 in   Clear
6:55 PM 51.8 °F - 32.0 °F 47% 29.90 in 10.0 mi WNW 17.3 mph 23.0 mph 0.00 in   Clear
7:15 PM 50.0 °F - 32.0 °F 50% 29.90 in 10.0 mi WNW 16.1 mph 24.2 mph 0.00 in   Clear
7:35 PM 50.0 °F - 32.0 °F 50% 29.92 in 10.0 mi WNW 18.4 mph 21.9 mph 0.00 in   Clear
7:55 PM 48.2 °F - 32.0 °F 54% 29.95 in 10.0 mi NW 18.4 mph 26.5 mph 0.00 in   Clear
8:15 PM 46.4 °F 38.7 °F 32.0 °F 57% 29.96 in 10.0 mi NW 20.7 mph 25.3 mph 0.00 in   Clear
8:35 PM 44.6 °F 36.6 °F 30.2 °F 57% 29.97 in 10.0 mi WNW 19.6 mph 28.8 mph 0.00 in   Clear
8:55 PM 42.8 °F 34.3 °F 30.2 °F 61% 29.98 in 10.0 mi NW 19.6 mph - 0.00 in   Clear
9:15 PM 42.8 °F 35.4 °F 30.2 °F 61% 30.01 in 10.0 mi NW 15.0 mph - 0.00 in   Clear
9:35 PM 41.0 °F 32.5 °F 30.2 °F 65% 30.03 in 10.0 mi NW 17.3 mph - 0.00 in   Clear
9:55 PM 39.2 °F 31.6 °F 30.2 °F 70% 30.05 in 10.0 mi NNW 12.7 mph - 0.00 in   Clear
10:15 PM 39.2 °F 31.2 °F 30.2 °F 70% 30.06 in 10.0 mi NW 13.8 mph 20.7 mph 0.00 in   Clear
10:35 PM 39.2 °F 28.5 °F 28.4 °F 65% 30.06 in 10.0 mi NW 24.2 mph 29.9 mph 0.00 in   Clear
10:55 PM 37.4 °F 26.9 °F 28.4 °F 70% 30.07 in 10.0 mi NW 20.7 mph 26.5 mph 0.00 in   Clear
11:15 PM 37.4 °F 28.2 °F 28.4 °F 70% 30.10 in 10.0 mi NW 16.1 mph 24.2 mph 0.00 in   Clear
11:35 PM 37.4 °F 27.5 °F 28.4 °F 70% 30.10 in 10.0 mi NW 18.4 mph - 0.00 in   Clear
11:55 PM 37.4 °F 27.5 °F 26.6 °F 65% 30.11 in 10.0 mi NW 18.4 mph 26.5 mph 0.00 in   Clear